STARLINK-37882

Last updated on Sun Aug 09 2026 00:02:04 GMT+0000 (Coordinated Universal Time)

1 69954U 26157M 26220.14822971 .00022533 00000+0 41173-3 0 9993 2 69954 53.1596 177.3559 0001284 123.5339 236.5793 15.49329180 4700
UTC large
Height (km)
Speed (km/s)
/
Latitude / Longitude
Inclination (degrees)
Orbital Period (minutes)
Azimuth
Elevation
Range (km)
Doppler Factor

Next 0 passes for location: London (51.5072 / 0.1276)

No passes found over London.
STARLINK-37882